This demonstration page uses our WeatherBlox Daily Observations layout. Learn more.

Left ArrowRight Arrow

Hourly Observations for March 15, 2018

Temp ( °F °C ) Dew Point ( °F °C ) Humidity (%) Winds ( mph kmh ) Pressure ( in mb ) Visibility ( mi km ) Precip ( " mm )
12:54 am 00:54 Clear 34 1.1 24 -4.4 67 67 N 7 11 29.86 1011 9 14 0.00 0.00
1:54 am 01:54 Clear 35 1.7 24 -4.4 64 64 NNW 5 7 29.85 1011 10 16 0.00 0.00
2:54 am 02:54 Clear 35 1.7 24 -4.4 64 64 Calm 29.84 1010 10 16 0.00 0.00
3:54 am 03:54 Clear 33 0.6 24 -4.4 70 70 NNW 3 6 29.82 1010 10 16 0.00 0.00
4:54 am 04:54 Clear 31 -0.6 23 -5 72 72 Calm 29.80 1009 10 16 0.00 0.00
5:54 am 05:54 Clear 30 -1.1 23 -5 75 75 Calm 29.80 1009 10 16 0.00 0.00
6:54 am 06:54 Clear 31 -0.6 24 -4.4 76 76 Calm 29.82 1010 10 16 0.00 0.00
7:54 am 07:54 Sunny 30 -1.1 24 -4.4 79 79 Calm 29.83 1010 10 16 0.00 0.00
8:54 am 08:54 Sunny 35 1.7 28 -2.2 76 76 N 6 9 29.82 1010 9 14 0.00 0.00
9:54 am 09:54 Sunny 44 6.7 29 -1.7 55 55 E 3 6 29.82 1010 8 13 0.00 0.00
10:54 am 10:54 Sunny 53 11.7 30 -1.1 41 41 E 9 15 29.81 1010 8 13 0.00 0.00
11:54 am 11:54 Sunny 60 15.6 29 -1.7 31 31 ESE 8 13 29.80 1009 10 16 0.00 0.00
12:54 pm 12:54 Sunny 63 17.2 30 -1.1 29 29 E 14 22 29.78 1009 10 16 0.00 0.00
1:54 pm 13:54 Sunny 65 18.3 30 -1.1 27 27 E 18 30 29.77 1008 10 16 0.00 0.00
2:54 pm 14:54 Sunny 65 18.3 31 -0.6 28 28 E 22 35 29.73 1007 9 14 0.00 0.00
3:54 pm 15:54 Sunny 67 19.4 29 -1.7 24 24 E 23 37 29.71 1006 10 16 0.00 0.00
4:54 pm 16:54 Sunny 68 20 31 -0.6 25 25 E 23 37 29.70 1006 10 16 0.00 0.00
5:54 pm 17:54 Sunny 66 18.9 31 -0.6 27 27 E 21 33 29.69 1006 10 16 0.00 0.00
6:54 pm 18:54 Sunny 63 17.2 31 -0.6 30 30 E 24 39 29.70 1006 10 16 0.00 0.00
7:54 pm 19:54 Clear 57 13.9 28 -2.2 33 33 ENE 20 31 29.71 1006 10 16 0.00 0.00
8:54 pm 20:54 Clear 54 12.2 25 -3.9 33 33 E 16 26 29.72 1007 10 16 0.00 0.00
9:54 pm 21:54 Clear 52 11.1 24 -4.4 34 34 E 16 26 29.74 1007 10 16 0.00 0.00
10:54 pm 22:54 Clear 51 10.6 24 -4.4 35 35 E 20 31 29.74 1007 10 16 0.00 0.00
11:54 pm 23:54 Clear 50 10 23 -5 35 35 E 18 30 29.74 1007 10 16 0.00 0.00

Powered by AerisWeather